星链-31611 (STARLINK-31611 )

导读

STARLINK-31611是美国太空探索技术公司SpaceX星链互联网卫星星座中的一员,于2024年3月25日发射入轨,承担低轨道卫星互联网通信服务任务,为全球偏远地区、海洋空域等场景提供宽带互联网接入服务,属于Starlink Gen2批次组网卫星,进一步扩充了星链星座的在轨服务规模。

基本信息
目录编号:
59325
目录名称:
STARLINK-31611
国际标识:
2024-057F
轨道中心:
EARTH
卫星名称:
星链-31611
卫星全名:
星链-31611 (STARLINK-31611 )
卫星状态:
在轨 (已飞行815 天)
发射日期:
2024-03-25 UTC
国别 :
美国 (US)
星等 :
--
轨道信息
数据来源 国际轨道数据 AOE轨道数据
星历时间 2026-06-17T12:52:39+0800
22小时前
查看轨道信息
2026-06-16T12:00:00+0800
1天前
查看轨道信息
半长轴 6861.192km 6861.196km
偏心率 0.0000856 0.0001738
轨道倾角 43.005° 42.997°
近地点辐角 273.976° 121.529°
升交点赤经 345.486° 351.328°
平近点角 86.099° 291.541°
近地点 482.467km 481.866km
远地点 483.643km 484.252km
周期 94.267分钟 94.267分钟
每日圈数 15.275783 15.27577
详细信息
固有亮度:
5
最大亮度:
0.3
卫星平台:
Starlink v2.0 mini
覆盖范围:
全球
运营商:
太空探索技术公司
运营商所在国:
美国
制造商(研发单位):
太空探索技术公司
制造商所在国:
美国
使用方式:
暂无
卫星简介
星链(Starlink)计划是由太空探索技术公司(SpaceX)提出的一个巨型低轨卫星互联网星座项目,计划在2019年至2024年间在太空搭建由约1.2万颗卫星组成的“星链”网络,其中1584颗将部署在地球上空550千米处的近地轨道,并从2020年开始工作。该卫星仍在工作。
2D轨道图
3D轨道图
轨道高度分析图
轨道倾角分析图
轨道综合分析图
查看轨道综合分析图